| time (UTC) | temp F | wind direction | speed knots | gust knots | rain 1hr in | rain 24hr in | rain mn in | humidity % | barometer mb |
| 20260506020905 | 50 | 29 | 1.7 | 7.0 | 0.00 | 0.00 | 0.00 | 78 | 1011.3 |
| 20260506020006 | 50 | 8 | 0.9 | 2.6 | 0.00 | 0.00 | 0.00 | 78 | 1011.4 |
| 20260506015403 | 50 | 30 | 0.9 | 3.5 | 0.00 | 0.00 | 0.00 | 78 | 1011.4 |
| 20260506014505 | 51 | 19 | 0.9 | 4.3 | 0.00 | 0.00 | 0.00 | 78 | 1011.4 |
| 20260506013603 | 51 | 2 | 0.9 | 5.2 | 0.00 | 0.00 | 0.00 | 78 | 1011.4 |
| 20260506012705 | 51 | 17 | 0.9 | 3.5 | 0.00 | 0.00 | 0.00 | 77 | 1011.5 |
| 20260506011805 | 51 | 9 | 0.9 | 7.8 | 0.00 | 0.00 | 0.00 | 76 | 1011.6 |
| 20260506011116 | 51 | 14 | 0.9 | 4.3 | 0.00 | 0.00 | 0.00 | 76 | 1011.6 |
| 20260506010005 | 51 | 52 | 0.9 | 6.1 | 0.00 | 0.00 | 0.00 | 77 | 1011.6 |
| 20260506005403 | 51 | 78 | 0.9 | 6.1 | 0.00 | 0.00 | 0.00 | 76 | 1011.5 |
| 20260506004505 | 51 | 97 | 0.9 | 3.5 | 0.00 | 0.00 | 0.00 | 76 | 1011.6 |
| 20260506003604 | 51 | 36 | 0.9 | 3.5 | 0.00 | 0.00 | 0.00 | 76 | 1011.7 |
| 20260506002705 | 51 | 40 | 0.9 | 5.2 | 0.00 | 0.00 | 0.00 | 75 | 1011.7 |
| 20260506001806 | 51 | 48 | 1.7 | 7.0 | 0.00 | 0.00 | 0.00 | 75 | 1011.8 |
| 20260506000904 | 51 | 50 | 0.9 | 6.1 | 0.00 | 0.00 | 0.00 | 75 | 1011.8 |
| 20260506000005 | 51 | 58 | 1.7 | 7.0 | 0.00 | 0.00 | 0.00 | 75 | 1011.9 |
| 20260505235615 | 52 | 60 | 1.7 | 7.0 | 0.00 | 0.00 | 0.00 | 75 | 1011.8 |
| 20260505234505 | 52 | 50 | 1.7 | 7.0 | 0.00 | 0.00 | 0.00 | 74 | 1011.8 |
| 20260505233604 | 52 | 31 | 2.6 | 11.3 | 0.00 | 0.00 | 0.00 | 73 | 1011.9 |
| 20260505232917 | 52 | 40 | 1.7 | 7.0 | 0.00 | 0.00 | 0.00 | 74 | 1011.8 |
| 20260505231805 | 52 | 45 | 1.7 | 6.1 | 0.00 | 0.00 | 0.00 | 77 | 1011.7 |
| 20260505230903 | 52 | 21 | 1.7 | 9.6 | 0.00 | 0.00 | 0.00 | 78 | 1011.7 |
| 20260505230003 | 52 | 54 | 0.9 | 7.0 | 0.00 | 0.00 | 0.00 | 80 | 1011.8 |
| 20260505225405 | 52 | 80 | 0.9 | 3.5 | 0.00 | 0.00 | 0.00 | 81 | 1011.7 |
| 20260505224505 | 52 | 83 | 0.9 | 5.2 | 0.00 | 0.00 | 0.00 | 80 | 1011.8 |
| 20260505223816 | 52 | 88 | 1.7 | 6.1 | 0.00 | 0.00 | 0.00 | 80 | 1011.7 |
| 20260505222706 | 53 | 58 | 0.9 | 4.3 | 0.00 | 0.00 | 0.00 | 79 | 1011.7 |
| 20260505221806 | 53 | 35 | 0.9 | 4.3 | 0.00 | 0.00 | 0.00 | 79 | 1011.8 |
| 20260505220908 | 53 | 52 | 1.7 | 7.0 | 0.00 | 0.00 | 0.00 | 79 | 1011.8 |
| 20260505220007 | 54 | 20 | 1.7 | 10.4 | 0.00 | 0.00 | 0.00 | 79 | 1011.9 |
| 20260505215403 | 54 | 5 | 2.6 | 10.4 | 0.00 | 0.00 | 0.00 | 77 | 1011.8 |
| 20260505214503 | 54 | 41 | 1.7 | 7.8 | 0.00 | 0.00 | 0.00 | 73 | 1011.7 |
| 20260505213604 | 54 | 69 | 1.7 | 4.3 | 0.00 | 0.00 | 0.00 | 72 | 1011.6 |
| 20260505212703 | 54 | 78 | 0.9 | 5.2 | 0.00 | 0.00 | 0.00 | 73 | 1011.6 |
| 20260505211805 | 54 | 90 | 0.9 | 3.5 | 0.00 | 0.00 | 0.00 | 73 | 1011.6 |
| 20260505211118 | 54 | 90 | 0.9 | 3.5 | 0.00 | 0.00 | 0.00 | 73 | 1011.5 |
| 20260505210003 | 54 | 90 | 0.9 | 5.2 | 0.00 | 0.00 | 0.00 | 74 | 1011.6 |
| 20260505205406 | 54 | 89 | 0.9 | 4.3 | 0.00 | 0.00 | 0.00 | 74 | 1011.5 |
| 20260505204505 | 55 | 83 | 2.6 | 8.7 | 0.00 | 0.00 | 0.00 | 73 | 1011.5 |
| 20260505203604 | 55 | 89 | 1.7 | 8.7 | 0.00 | 0.00 | 0.00 | 70 | 1011.5 |
| 20260505202703 | 56 | 85 | 0.9 | 3.5 | 0.00 | 0.00 | 0.00 | 69 | 1011.4 |
| 20260505201805 | 56 | 85 | 1.7 | 5.2 | 0.00 | 0.00 | 0.00 | 68 | 1011.2 |
| 20260505200903 | 56 | 81 | 1.7 | 3.5 | 0.00 | 0.00 | 0.00 | 68 | 1011.1 |
| 20260505200005 | 57 | 82 | 2.6 | 6.1 | 0.00 | 0.00 | 0.00 | 66 | 1011.0 |
| 20260505195403 | 57 | 88 | 1.7 | 5.2 | 0.00 | 0.00 | 0.00 | 65 | 1010.9 |
| 20260505194503 | 57 | 76 | 1.7 | 4.3 | 0.00 | 0.00 | 0.00 | 63 | 1010.8 |
| 20260505193605 | 57 | 78 | 0.9 | 4.3 | 0.00 | 0.00 | 0.00 | 62 | 1010.6 |
| 20260505192915 | 57 | 82 | 0.0 | 3.5 | 0.00 | 0.00 | 0.00 | 62 | 1010.5 |
| 20260505192017 | 58 | 82 | 0.0 | 1.7 | 0.00 | 0.00 | 0.00 | 62 | 1010.3 |
| 20260505190905 | 58 | 82 | 0.9 | 2.6 | 0.00 | 0.00 | 0.00 | 61 | 1010.1 |
| 20260505190003 | 58 | 82 | 0.9 | 2.6 | 0.00 | 0.00 | 0.00 | 61 | 1010.0 |
| 20260505185403 | 58 | 82 | 0.0 | 1.7 | 0.00 | 0.00 | 0.00 | 61 | 1010.0 |
| 20260505184716 | 58 | 82 | 0.9 | 2.6 | 0.00 | 0.00 | 0.00 | 61 | 1010.0 |
| 20260505183604 | 58 | 82 | 0.9 | 2.6 | 0.00 | 0.00 | 0.00 | 60 | 1010.0 |
| 20260505182705 | 58 | 82 | 0.9 | 2.6 | 0.00 | 0.00 | 0.00 | 60 | 1009.9 |
| 20260505181805 | 58 | 82 | 1.7 | 3.5 | 0.00 | 0.00 | 0.00 | 60 | 1009.9 |
| 20260505180903 | 58 | 85 | 1.7 | 6.1 | 0.00 | 0.00 | 0.00 | 60 | 1010.1 |
| 20260505180003 | 59 | 94 | 1.7 | 5.2 | 0.00 | 0.00 | 0.00 | 59 | 1010.1 |
| 20260505175403 | 59 | 97 | 1.7 | 5.2 | 0.00 | 0.00 | 0.00 | 60 | 1010.1 |
| 20260505174503 | 59 | 94 | 1.7 | 6.1 | 0.00 | 0.00 | 0.00 | 59 | 1010.1 |
| 20260505173603 | 59 | 93 | 1.7 | 7.0 | 0.00 | 0.00 | 0.00 | 58 | 1010.2 |
| 20260505172703 | 60 | 90 | 0.9 | 3.5 | 0.00 | 0.00 | 0.00 | 58 | 1010.2 |
| 20260505171805 | 60 | 75 | 1.7 | 4.3 | 0.00 | 0.00 | 0.00 | 57 | 1010.2 |
| 20260505170903 | 60 | 78 | 1.7 | 4.3 | 0.00 | 0.00 | 0.00 | 57 | 1010.2 |
| 20260505170004 | 60 | 70 | 0.9 | 4.3 | 0.00 | 0.00 | 0.00 | 57 | 1010.2 |
| 20260505165403 | 60 | 73 | 0.9 | 2.6 | 0.00 | 0.00 | 0.00 | 57 | 1010.2 |
| 20260505164717 | 60 | 77 | 0.9 | 2.6 | 0.00 | 0.00 | 0.00 | 57 | 1010.3 |
| 20260505163814 | 61 | 76 | 1.7 | 4.3 | 0.00 | 0.00 | 0.00 | 56 | 1010.2 |
| 20260505162705 | 61 | 75 | 0.9 | 3.5 | 0.00 | 0.00 | 0.00 | 56 | 1010.2 |
| 20260505161805 | 61 | 77 | 0.9 | 3.5 | 0.00 | 0.00 | 0.00 | 56 | 1010.2 |
| 20260505160903 | 61 | 77 | 0.9 | 3.5 | 0.00 | 0.00 | 0.00 | 56 | 1010.2 |
| 20260505160219 | 61 | 74 | 1.7 | 5.2 | 0.00 | 0.00 | 0.00 | 55 | 1010.2 |
| 20260505152704 | 61 | 60 | 0.9 | 2.6 | 0.00 | 0.00 | 0.00 | 55 | 1010.4 |
| 20260505151803 | 61 | 26 | 0.9 | 3.5 | 0.00 | 0.00 | 0.00 | 56 | 1010.4 |
| 20260505151117 | 61 | 20 | 0.9 | 4.3 | 0.00 | 0.00 | 0.00 | 56 | 1010.5 |
| 20260505150214 | 61 | 69 | 0.9 | 5.2 | 0.00 | 0.00 | 0.00 | 56 | 1010.4 |
| 20260505124506 | 62 | 65 | 1.7 | 6.1 | 0.00 | 0.00 | 0.00 | 57 | 1011.1 |
| 20260505123604 | 62 | 42 | 1.7 | 7.8 | 0.00 | 0.00 | 0.00 | 58 | 1011.0 |
| 20260505122703 | 62 | 77 | 2.6 | 7.0 | 0.00 | 0.00 | 0.00 | 57 | 1011.0 |
| 20260505121806 | 62 | 51 | 1.7 | 7.8 | 0.00 | 0.00 | 0.00 | 57 | 1010.9 |
| 20260505120903 | 62 | 2 | 1.7 | 7.8 | 0.00 | 0.00 | 0.00 | 57 | 1010.9 |
| 20260505120216 | 62 | 33 | 1.7 | 7.0 | 0.00 | 0.00 | 0.00 | 57 | 1011.0 |
| 20260505115405 | 62 | 37 | 1.7 | 6.1 | 0.00 | 0.00 | 0.00 | 58 | 1011.0 |
| 20260505114503 | 62 | 26 | 1.7 | 7.0 | 0.00 | 0.00 | 0.00 | 59 | 1010.9 |
| 20260505113606 | 62 | 58 | 1.7 | 7.0 | 0.00 | 0.00 | 0.00 | 59 | 1011.0 |
| 20260505112705 | 62 | 49 | 2.6 | 7.0 | 0.00 | 0.00 | 0.00 | 59 | 1011.0 |
| 20260505111803 | 61 | 32 | 2.6 | 8.7 | 0.00 | 0.00 | 0.00 | 60 | 1011.0 |
| 20260505110903 | 61 | 26 | 1.7 | 7.8 | 0.00 | 0.00 | 0.00 | 60 | 1011.1 |
| 20260505101805 | 61 | 349 | 1.7 | 4.3 | 0.00 | 0.00 | 0.00 | 67 | 1011.6 |
| 20260505100905 | 60 | 81 | 1.7 | 7.0 | 0.00 | 0.00 | 0.00 | 66 | 1011.8 |
| 20260505100003 | 60 | 31 | 1.7 | 5.2 | 0.00 | 0.00 | 0.00 | 66 | 1011.8 |
| 20260505095403 | 60 | 27 | 1.7 | 5.2 | 0.00 | 0.00 | 0.00 | 66 | 1011.8 |
| 20260505094717 | 59 | 66 | 1.7 | 6.1 | 0.00 | 0.00 | 0.00 | 67 | 1012.0 |
| 20260505093603 | 59 | 2 | 0.9 | 7.0 | 0.00 | 0.00 | 0.00 | 69 | 1011.8 |
| 20260505092705 | 58 | 22 | 1.7 | 8.7 | 0.00 | 0.00 | 0.00 | 71 | 1011.9 |
| 20260505091803 | 58 | 30 | 1.7 | 6.1 | 0.00 | 0.00 | 0.00 | 72 | 1011.9 |
| 20260505091116 | 57 | 13 | 1.7 | 7.0 | 0.00 | 0.00 | 0.00 | 73 | 1011.9 |
| 20260505090003 | 57 | 4 | 1.7 | 7.0 | 0.00 | 0.00 | 0.00 | 73 | 1012.0 |
| 20260505085404 | 57 | 1 | 1.7 | 6.1 | 0.00 | 0.00 | 0.00 | 75 | 1012.0 |
| 20260505084717 | 56 | 11 | 1.7 | 6.1 | 0.00 | 0.00 | 0.00 | 76 | 1012.0 |
| 20260505083603 | 55 | 25 | 0.9 | 3.5 | 0.00 | 0.00 | 0.00 | 76 | 1012.1 |
| 20260505082703 | 55 | 23 | 0.9 | 6.1 | 0.00 | 0.00 | 0.00 | 76 | 1012.2 |
| 20260505081806 | 55 | 21 | 0.9 | 6.1 | 0.00 | 0.00 | 0.00 | 77 | 1012.2 |
| 20260505080905 | 55 | 346 | 0.0 | 2.6 | 0.00 | 0.00 | 0.00 | 78 | 1012.1 |
| 20260505080005 | 54 | 7 | 0.9 | 6.1 | 0.00 | 0.00 | 0.00 | 79 | 1012.0 |
| 20260505075615 | 54 | 6 | 1.7 | 6.1 | 0.00 | 0.00 | 0.00 | 78 | 1012.0 |
| 20260505074504 | 54 | 11 | 0.9 | 6.1 | 0.00 | 0.00 | 0.00 | 79 | 1012.0 |
| 20260505073603 | 55 | 354 | 0.9 | 4.3 | 0.00 | 0.00 | 0.00 | 78 | 1011.9 |
| 20260505072703 | 55 | 331 | 0.9 | 6.1 | 0.00 | 0.00 | 0.00 | 78 | 1011.9 |
| 20260505072015 | 55 | 340 | 0.9 | 4.3 | 0.00 | 0.00 | 0.00 | 79 | 1012.1 |
| 20260505070905 | 54 | 18 | 0.9 | 3.5 | 0.00 | 0.00 | 0.00 | 80 | 1012.2 |
| 20260505070005 | 54 | 24 | 0.9 | 4.3 | 0.00 | 0.00 | 0.00 | 81 | 1012.3 |
| 20260505065403 | 54 | 28 | 0.9 | 4.3 | 0.00 | 0.00 | 0.00 | 82 | 1012.2 |
| 20260505064505 | 53 | 31 | 0.0 | 3.5 | 0.00 | 0.00 | 0.00 | 83 | 1012.3 |
| 20260505063605 | 53 | 32 | 0.9 | 2.6 | 0.00 | 0.00 | 0.00 | 84 | 1012.2 |
| 20260505062705 | 53 | 31 | 0.9 | 2.6 | 0.00 | 0.00 | 0.00 | 85 | 1012.2 |
| 20260505061803 | 53 | 26 | 0.9 | 3.5 | 0.00 | 0.00 | 0.00 | 85 | 1012.3 |
| 20260505061118 | 53 | 22 | 0.0 | 3.5 | 0.00 | 0.00 | 0.00 | 86 | 1012.3 |
| 20260505060005 | 53 | 29 | 0.9 | 3.5 | 0.00 | 0.00 | 0.00 | 87 | 1012.2 |
| 20260505055403 | 53 | 56 | 0.9 | 4.3 | 0.00 | 0.00 | 0.00 | 87 | 1012.3 |
| 20260505054505 | 52 | 78 | 0.0 | 2.6 | 0.00 | 0.00 | 0.00 | 87 | 1012.3 |
| 20260505053603 | 52 | 82 | 0.0 | 3.5 | 0.00 | 0.00 | 0.00 | 87 | 1012.3 |
| 20260505052913 | 52 | 85 | 0.0 | 2.6 | 0.00 | 0.00 | 0.00 | 87 | 1012.3 |
| 20260505051805 | 52 | 86 | 0.0 | 1.7 | 0.00 | 0.00 | 0.00 | 87 | 1012.3 |
| 20260505050905 | 52 | 86 | 0.0 | 0.9 | 0.00 | 0.00 | 0.00 | 87 | 1012.4 |
| 20260505050216 | 52 | 86 | 0.0 | 1.7 | 0.00 | 0.00 | 0.00 | 87 | 1012.3 |
| 20260505040903 | 52 | 75 | 0.0 | 1.7 | 0.00 | 0.00 | 0.00 | 89 | 1012.4 |
| 20260505040216 | 52 | 75 | 0.9 | 2.6 | 0.00 | 0.00 | 0.00 | 88 | 1012.4 |
| 20260505035405 | 52 | 78 | 0.0 | 1.7 | 0.00 | 0.00 | 0.00 | 89 | 1012.4 |
| 20260505034505 | 52 | 78 | 0.0 | 3.5 | 0.00 | 0.00 | 0.00 | 88 | 1012.4 |
| 20260505033605 | 52 | 80 | 0.9 | 3.5 | 0.00 | 0.00 | 0.00 | 88 | 1012.5 |
| 20260505032703 | 52 | 88 | 0.9 | 3.5 | 0.00 | 0.00 | 0.00 | 88 | 1012.4 |
| 20260505031803 | 52 | 94 | 0.9 | 3.5 | 0.00 | 0.00 | 0.00 | 88 | 1012.4 |
| 20260505030903 | 52 | 99 | 0.0 | 2.6 | 0.00 | 0.00 | 0.00 | 89 | 1012.4 |
| 20260505030005 | 52 | 99 | 0.0 | 1.7 | 0.00 | 0.00 | 0.00 | 89 | 1012.5 |
| 20260505025404 | 53 | 99 | 0.0 | 1.7 | 0.00 | 0.00 | 0.00 | 89 | 1012.5 |
| 20260505024505 | 53 | 99 | 0.0 | 1.7 | 0.00 | 0.00 | 0.00 | 89 | 1012.5 |
| 20260505023605 | 53 | 99 | 0.0 | 1.7 | 0.00 | 0.00 | 0.00 | 89 | 1012.6 |
| 20260505022705 | 53 | 100 | 0.9 | 3.5 | 0.00 | 0.00 | 0.00 | 88 | 1012.5 |
| 20260505021805 | 53 | 95 | 0.9 | 3.5 | 0.00 | 0.00 | 0.00 | 88 | 1012.6 |